Regional Weather Roundup
Issued by NWS

Home | Current Version | Previous Version | Text Only | Print | Product List | Glossary On
Versions: 1 2 3 4 5 6 7 8 9 10 11 12 13 14 15 16 17 18 19 20 21 22 23 24 25 26 27 28 29 30 31 32 33 34 35 36 37 38 39 40 41 42 43 44 45 46 47 48 49 50
000
ASUS43 KMKX 161511
RWRWI

WISCONSIN REGIONAL WEATHER ROUNDUP
NATIONAL WEATHER SERVICE MILWAUKEE/SULLIVAN WI
1000 AM CDT WED APR 16 2014

NOTE: "FAIR" INDICATES FEW OR NO CLOUDS BELOW 12,000 FEET WITH NO
SIGNIFICANT WEATHER AND/OR OBSTRUCTIONS TO VISIBILITY.

WIZ001-002-006>008-014>016-023>028-161600-
NORTHWEST WISCONSIN

CITY           SKY/WX    TMP DP  RH WIND       PRES   REMARKS
SUPERIOR ARPT  LGT SNOW  28  24  86 E7        30.18S WCI  21
ASHLAND        LGT SNOW  27  24  89 SE7       30.21S VSB 3/4 WCI  19
HAYWARD        SNOW      26  23  88 E8        30.12F VSB 1/2 WCI  18
SIREN          LGT SNOW  28  26  93 E7        30.06F VSB 3/4 WCI  21
RICE LAKE      SNOW      28  26  89 E15       30.07F VSB 1/2 WCI  17
LADYSMITH      LGT SNOW  28  26  91 E14       30.13F VSB 3/4 WCI  17
EAU CLAIRE     LGT SNOW  31  24  75 E14G23    30.04F WCI  21
MENOMONIE      LGT SNOW  31  27  84 E14G21    30.04F WCI  21
NEW RICHMOND   LGT SNOW  29  27  93 E15G22    30.01S VSB 3/4 WCI  18
OSCEOLA        LGT SNOW  30  28  94 E17       30.03S VSB 3/4 WCI  18
$$

WIZ003>005-009-010-017-018-161600-
NORTH CENTRAL WISCONSIN

CITY           SKY/WX    TMP DP  RH WIND       PRES   REMARKS
WOODRUFF       LGT SNOW  27  20  77 SE9       30.17F VSB 3/4 WCI  17
RHINELANDER    SNOW      24  21  88 SE12      30.19F VSB 1/2 WCI  13
EAGLE RIVER    LGT SNOW  26  20  78 S7        30.20S WCI  18
LAND O LAKES   CLOUDY    28  15  60 S7        30.21R WCI  20
PHILLIPS       LGT SNOW  25  22  90 SE9       30.15S VSB 3/4 WCI  15
TOMAHAWK       LGT SNOW  26  23  89 CALM      30.17F VSB 3/4
MEDFORD        LGT SNOW  27  24  88 E12G20    30.12F VSB 3/4 WCI  16
MERRILL        LGT SNOW  27  24  90 CALM      30.18F VSB 3/4
$$

WIZ029-030-035-036-043>047-161600-
CENTRAL WISCONSIN

CITY           SKY/WX    TMP DP  RH WIND       PRES   REMARKS
WAUSAU         LGT SNOW  28  23  81 E14       30.17F WCI  17
MOSINEE        CLOUDY    28  25  86 E14G20    30.18F WCI  17
MARSHFIELD     SNOW      29  25  85 SE17G24   30.13F VSB 1/2 WCI  17
STEVENS POINT  CLOUDY    30  22  73 SE9       30.19F WCI  21
WAUPACA        CLOUDY    36  27  69 SE12      30.23S WCI  27
WAUTOMA        CLOUDY    35  24  64 SE12      30.21F WCI  27
WISC RAPIDS    SNOW      30  26  85 SE14      30.17F VSB 1/2 WCI  19
CAMP DOUGLAS   CLOUDY    34  28  80 E15G22    30.11F WCI  24
$$

WIZ011>013-019>022-031-037>040-048>050-161600-
NORTHEAST WISCONSIN

CITY           SKY/WX    TMP DP  RH WIND       PRES   REMARKS
ANTIGO         LGT SNOW  25  23  91 SE14      30.20F VSB 1   WCI  13
STURGEON BAY   CLOUDY    34  21  60 S15G22    30.31S WCI  24
GREEN BAY      CLOUDY    34  28  79 SE12      30.28F WCI  25
MANITOWOC      CLOUDY    35  28  75 SE16      30.30F WCI  25
APPLETON       CLOUDY    34  27  75 SE13G18   30.24F WCI  25
CLINTONVILLE   CLOUDY    32  27  80 E7        30.24F WCI  26
OSHKOSH        CLOUDY    35  26  69 SE12      30.23F WCI  27
$$

WIZ032>034-041-042-053>061-161600-
SOUTHWEST WISCONSIN

CITY           SKY/WX    TMP DP  RH WIND       PRES   REMARKS
LA CROSSE      CLOUDY    42  22  44 SE16      30.03F
SPARTA         CLOUDY    38  23  55 SE13G20   30.07F WCI  30
VIROQUA        PTSUNNY   38  25  58 SE22G29   30.03F WCI  28
BOSCOBEL       PTSUNNY   43  24  47 SE9G20    30.10F
PRAIRIE DU CHI CLOUDY    42  23  46 SE16G24   30.05F
PLATTEVILLE    FAIR      41  26  55 SE22G28   30.12F
$$

WIZ056-057-062-063-064-067-068-161600-
SOUTH CENTRAL WISCONSIN

CITY           SKY/WX    TMP DP  RH WIND       PRES   REMARKS
BARABOO/DELLS  CLOUDY    36  24  61 SE20      30.14F WCI  25
LONE ROCK      CLOUDY    41  25  53 SE13      30.14F
WATERTOWN      CLOUDY    38  25  61 SE12G17   30.22F WCI  30
MADISON        CLOUDY    38  24  57 S21       30.20F WCI  28
MIDDLETON      FAIR      39  24  56 S17       30.18S WCI  29
MONROE         CLOUDY    38  26  61 S18G29    30.17S WCI  29
JANESVILLE     CLOUDY    39  23  52 S17G23    30.21F WCI  30
$$

WIZ051-052-058>065-066-070>072-161600-
SOUTHEAST WISCONSIN

CITY           SKY/WX    TMP DP  RH WIND       PRES   REMARKS
MILWAUKEE      PTSUNNY   40  22  48 S15       30.29S WCI  32
WAUKESHA       MOSUNNY   36  23  60 SE9       30.27  WCI  29
MILWAUKEE/TIMM PTSUNNY   37  21  52 S13       30.28F WCI  29
RACINE         SUNNY     38  25  59 S16       30.31S WCI  29
BURLINGTON     SUNNY     37  24  59 E10G17    30.26F WCI  30
KENOSHA        MOSUNNY   40  24  53 S15       30.28S WCI  32
FOND DU LAC    CLOUDY    35  24  64 SE15      30.24F WCI  25
SHEBOYGAN      CLOUDY    35  29  78 SE10G18   30.29F WCI  27
WEST BEND      CLOUDY    36  21  55 SE10      30.26F WCI  28
JUNEAU         CLOUDY    36  22  56 SE15      30.23F WCI  26
$$

LSZ147-162-161600-
LAKE SUPERIOR

STATION/POSITION TIME  TEMP    WIND        PRES    WAVE
                       AIR SEA DIR/SP/G            HT/PER
                 (UTC) (F)     (DEG/KT/KT) (MB)    (FT/S)
DEVILS ISLAND    1500   27      90/ 11/ 13 1024.9R
PORT WING        1400   30     110/  4/  6 1022.7
SAXON HARBOR     1400          150/  3/  8 1022.7R
$$

LMZ867-665-643>646-161600-
LAKE MICHIGAN

STATION/POSITION TIME  TEMP    WIND        PRES    WAVE
                       AIR SEA DIR/SP/G            HT/PER
                 (UTC) (F)     (DEG/KT/KT) (MB)    (FT/S)
NORTHPORT PIER   1400   33     160/  7/ 15 1026.8R
SISTER BAY       1408   39     190/ 11/ 13   N/A
KEWAUNEE LAKESHO 1400   33     170/ 17/ 19 1027.0S
SHEBOYGAN LAKESH 1500   35     150/ 19/ 21 1026.8F
PORT WASHINGTON  1400   36     150/ 12/ 15 1026.4R
MILWAUKEE LAKESH 1400   36     170/ 11/ 14   N/A
KENOSHA   LAKESH 1500   36     150/ 19/ 21   N/A
$$

TC  - TEMPERATURE IN CELSIUS
VSB - VISIBILITY IN STATUTE MILES
WCI - WIND CHILL INDEX
HX  - HEAT INDEX




USA.gov is the U.S. government's official web portal to all federal, state and local government web resources and services.